Regional Weather Roundup
Issued by NWS

Home | Current Version | Previous Version | Text Only | Print | Product List | Glossary On
Versions: 1 2 3 4 5 6 7 8 9 10 11 12 13 14 15 16 17 18 19 20 21 22 23 24 25 26 27 28 29 30 31 32 33 34 35 36 37 38 39 40 41 42 43 44 45 46 47 48 49 50
000
ASUS43 KMKX 171921
RWRWI

WISCONSIN REGIONAL WEATHER ROUNDUP
NATIONAL WEATHER SERVICE MILWAUKEE/SULLIVAN WI
200 PM CDT WED SEP 17 2014

NOTE: "FAIR" INDICATES FEW OR NO CLOUDS BELOW 12,000 FEET WITH NO
SIGNIFICANT WEATHER AND/OR OBSTRUCTIONS TO VISIBILITY.

WIZ001-002-006>008-014>016-023>028-172000-
NORTHWEST WISCONSIN

CITY           SKY/WX    TMP DP  RH WIND       PRES   REMARKS
SUPERIOR ARPT  CLOUDY    53  48  83 NE15G24   30.00R
ASHLAND        CLOUDY    54  48  80 NE18      30.01R
HAYWARD        SUNNY     70  45  40 VRB5      29.95F
SIREN          SUNNY     70  48  45 N3        29.96S
RICE LAKE      MOSUNNY   70  49  47 W5        29.97S
LADYSMITH      PTSUNNY   69  51  52 W5        29.97F
EAU CLAIRE     MOSUNNY   69  49  48 VRB3      29.95F
MENOMONIE      CLOUDY    69  51  52 S3        29.96S
NEW RICHMOND   MOSUNNY   71  51  49 E7        29.95F
OSCEOLA        SUNNY     71  52  51 CALM      29.98S
$$

WIZ003>005-009-010-017-018-172000-
NORTH CENTRAL WISCONSIN

CITY           SKY/WX    TMP DP  RH WIND       PRES   REMARKS
WOODRUFF       MOSUNNY   68  48  48 NW6       29.95S
RHINELANDER    SUNNY     68  45  43 W9        29.96S
EAGLE RIVER    SUNNY     67  41  38 NW9       29.94S
LAND O LAKES   MOSUNNY   68  44  42 NW9G16    29.95R
PHILLIPS       PTSUNNY   66  48  51 NW6       29.95S
TOMAHAWK       MOSUNNY   66  46  47 NW3       29.96S
MEDFORD        MOSUNNY   66  49  53 W5        29.96F
MERRILL        CLOUDY    67  49  52 W9        29.95F
$$

WIZ029-030-035-036-043>047-172000-
CENTRAL WISCONSIN

CITY           SKY/WX    TMP DP  RH WIND       PRES   REMARKS
WAUSAU         PTSUNNY   69  49  48 W12       29.94F
MOSINEE          N/A     66  52  59 W13G18    29.97
MARSHFIELD     PTSUNNY   69  50  50 W8        29.97F
STEVENS POINT  MOSUNNY   65  47  51 W9        29.97F
WAUPACA        SUNNY     71  49  44 W8        29.96F
WAUTOMA        PTSUNNY   70  47  43 W6        29.98S
WISC RAPIDS    MOSUNNY   69  47  45 W7        29.98F
CAMP DOUGLAS   MOSUNNY   68  52  56 S5        29.98F
$$

WIZ011>013-019>022-031-037>040-048>050-172000-
NORTHEAST WISCONSIN

CITY           SKY/WX    TMP DP  RH WIND       PRES   REMARKS
ANTIGO         PTSUNNY   65  49  54 N9        29.95F
STURGEON BAY   SUNNY     66  46  48 W8        29.95S
GREEN BAY      MOSUNNY   70  50  49 W10G20    29.95F
MANITOWOC      PTSUNNY   67  47  48 W12       29.97F
APPLETON       MOSUNNY   68  45  42 W9        29.97F
CLINTONVILLE   PTSUNNY   68  45  42 W10G16    29.94F
OSHKOSH        CLOUDY    68  48  48 VRB6G16   29.97F
$$

WIZ032>034-041-042-053>061-172000-
SOUTHWEST WISCONSIN

CITY           SKY/WX    TMP DP  RH WIND       PRES   REMARKS
LA CROSSE      CLOUDY    69  52  54 S8        29.97F
SPARTA         MOSUNNY   69  48  47 S6        29.98S
VIROQUA        MOCLDY    66  49  53 S3        30.00S
BOSCOBEL       CLOUDY    69  49  48 MISG      29.99F
PRAIRIE DU CHI SUNNY     67  48  50 SW5       29.99F
PLATTEVILLE    FAIR      67  48  50 CALM      30.01S
$$

WIZ056-057-062-063-064-067-068-172000-
SOUTH CENTRAL WISCONSIN

CITY           SKY/WX    TMP DP  RH WIND       PRES   REMARKS
BARABOO/DELLS  SUNNY     68  45  43 CALM      29.98F
LONE ROCK      MOSUNNY   72  49  44 S5        29.98F
WATERTOWN      SUNNY     68  47  46 NW6       29.99S
MADISON        MOSUNNY   68  46  45 VRB3      29.99F
MIDDLETON      FAIR      69  47  44 W8        30.00F
MONROE         MOSUNNY   66  50  55 S9        30.00S
JANESVILLE     MOSUNNY   70  46  43 SW6       29.99F
$$

WIZ051-052-058>065-066-070>072-172000-
SOUTHEAST WISCONSIN

CITY           SKY/WX    TMP DP  RH WIND       PRES   REMARKS
MILWAUKEE      MOSUNNY   67  45  45 SW10      29.99F
WAUKESHA       SUNNY     64  43  45 CALM      30.00F
MILWAUKEE/TIMM MOSUNNY   66  43  42 SW8       30.00F
RACINE         MOSUNNY   67  46  47 W8        30.01F
BURLINGTON     MOSUNNY   67  43  41 CALM      29.99F
KENOSHA        SUNNY     67  47  48 W7        30.00F
FOND DU LAC    PTSUNNY   66  46  48 S5        29.98F
SHEBOYGAN      PTSUNNY   68  45  43 NW5       29.98S
WEST BEND      PTSUNNY   68  45  42 W8        29.99F
JUNEAU         MOSUNNY   66  47  50 W7        30.00F
$$

LSZ147-162-172000-
LAKE SUPERIOR

STATION/POSITION TIME  TEMP    WIND        PRES    WAVE
                       AIR SEA DIR/SP/G            HT/PER
                 (UTC) (F)     (DEG/KT/KT) (MB)    (FT/S)
W MID LAKE BUOY  1850   44 45   50/ 17/ 21 1017.2R   6/ 6
DEVILS ISLAND    1900   45      60/ 21/ 24 1017.8R
PORT WING        1840   53      50/ 20/ 23 1016.3R
SAXON HARBOR     1800   53      50/ 18/ 20 1015.9R
$$

LMZ867-665-643>646-172000-
LAKE MICHIGAN

STATION/POSITION TIME  TEMP    WIND        PRES    WAVE
                       AIR SEA DIR/SP/G            HT/PER
                 (UTC) (F)     (DEG/KT/KT) (MB)    (FT/S)
N MID LAKE BUOY  1850   58 59  210/ 14/ 16 1013.6F   1/ 4
NORTHPORT PIER   1800   66     290/  6/  9 1013.5F
SISTER BAY       1812          270/  8/  9   N/A
KEWAUNEE LAKESHO 1800   66     290/  7/  9 1013.7F
SHEBOYGAN LAKESH 1900   57 49  140/ 11/ 13 1015.5F
PORT WASHINGTON  1800   68     290/  6/  8 1015.9S
ATWATER BUOY     1900   61     130/ 10/ 12 1016.5F
MILWAUKEE LAKESH 1900   60     130/ 12/ 14   N/A
S MID LAKE BUOY  1850   62 65  230/  6/  8 1016.5F   1/ 4
KENOSHA   LAKESH 1900   64     140/ 12/ 13 1015.6S
$$

TC  - TEMPERATURE IN CELSIUS
VSB - VISIBILITY IN STATUTE MILES
WCI - WIND CHILL INDEX
HX  - HEAT INDEX




USA.gov is the U.S. government's official web portal to all federal, state and local government web resources and services.